www.pogodaiklimat.ru

Погода и климат >> Архив погоды >> Япония >> Ниигата


ПОГОДА в Ниигате

  • Прогноз погоды в Ниигате
  • Монитор погоды в Ниигате

АРХИВ ПОГОДЫ в Ниигате

Время (UTC), дата Ветер
(напр.,м/с)
 
Видим.   Явления Облачность Т
(С)
Тd
(С)
f
(%)
Тe
(С)
Тes
(С)
Комфортность P
(гПа)
Po
(гПа)
Тmin
(С)
Tmax
(С)
R
(мм)
R24
(мм)
S
(см)
01 9.09 Ю 1 н/о н/о +27.3 +25.0 87 +39 +39 очень
душно
1009.0 1008.4
02 9.09 ЮВ 2 н/о н/о +29.6 +23.8 71 +41 +41 опасность
перегрева
1009.1 1008.5
03 9.09 ЮЗ 3 20 км {ливн. осадки} 9/9
[Cu Sc]
+29.9 +24.8 74 +43 +44 опасность
перегрева
1009.3 1008.7
04 9.09 З 3 н/о н/о +30.7 +25.1 72 +44 +44 опасность
перегрева
1009.0 1008.4
05 9.09 СЗ 5 н/о н/о +29.5 +24.8 76 +42 +42 опасность
перегрева
1009.4 1008.8
06 9.09 СЗ 4 20 км {ливн. осадки} 9/8
[Cu Sc Ac As]
+28.5 +24.7 80 +41 +41 опасность
перегрева
1009.5 1008.9 0.5
07 9.09 С 3 н/о н/о +29.0 +24.6 77 +41 +41 опасность
перегрева
1009.8 1009.2
08 9.09 С 2 н/о н/о +27.8 +24.7 83 +39 +39 очень
душно
1010.5 1009.9
09 9.09 С 2 20 км 8/6
[Cu Sc Ac trans Ci sp]
+27.2 +24.5 85 +38 +38 очень
душно
1010.9 1010.3
10 9.09 В 2 н/о н/о +27.0 +23.3 80 +36 +36 очень
душно
1011.6 1011.0
11 9.09 Ю 2 н/о н/о +27.5 +24.0 81 +38 +38 очень
душно
1012.4 1011.8
12 9.09 Ю 2 20 км 9/9
[Cu Sc Ac trans]
+27.1 +24.2 84 +38 +38 очень
душно
1012.8 1012.2 +30.9 0.5
15 9.09 ЮВ 1 н/о н/о +26.2 +24.2 89 +36 +36 очень
душно
1012.7 1012.0
16 9.09 Ю 2 н/о н/о +25.5 +23.7 90 +35 +35 очень
душно
1013.0 1012.3
17 9.09 ЮЗ 2 н/о н/о +25.2 +23.1 88 +34 +34 очень
душно
1012.9 1012.2
18 9.09 Ю 2 20 км 9/9
[Cu Sc]
+25.1 +23.2 89 +34 +34 очень
душно
1012.8 1012.1
19 9.09 ЮЗ 2 н/о н/о +24.9 +23.2 90 +33 +33 очень
душно
1013.1 1012.4
21 9.09 Ю 2 15 км 8/5
[Cu Sc Ac trans]
+24.8 +22.7 88 +33 +33 очень
душно
1013.7 1013.0
23 9.09 ЮЗ 3 н/о н/о +27.1 +23.4 80 +37 +37 очень
душно
1014.5 1013.8
00 10.09 ЮЗ 3 20 км 9/8
[Cu Sc Ac trans]
+28.3 +23.0 73 +38 +39 очень
душно
1014.7 1014.1 +24.5
01 10.09 З 3 н/о н/о +29.9 +23.6 69 +41 +41 опасность
перегрева
1014.7 1014.1
02 10.09 З 4 н/о н/о +30.3 +24.5 71 +43 +43 опасность
перегрева
1014.6 1014.0
03 10.09 СЗ 4 35 км 8/8
[Cu med, cong Ac trans]
+29.6 +23.8 71 +41 +43 опасность
перегрева
1014.5 1013.9
04 10.09 СЗ 3 н/о н/о +30.1 +26.1 79 +45 +45 опасность
перегрева
1014.3 1013.7
05 10.09 С 3 н/о н/о +28.9 +25.3 81 +42 +42 опасность
перегрева
1014.0 1013.4
06 10.09 С 3 35 км 3/3
[Cu med, cong Ac trans Ci fib]
+29.0 +24.1 75 +40 +45 очень
душно
1013.7 1013.1
07 10.09 СВ 3 н/о н/о +28.7 +23.2 72 +39 +39 очень
душно
1013.8 1013.2
08 10.09 СВ 2 н/о н/о +28.0 +22.0 70 +36 +36 очень
душно
1014.1 1013.5
09 10.09 СВ 1 20 км 3/1
[Cu med, cong Ac trans Cc]
+27.5 +21.3 69 +35 +35 очень
душно
1014.2 1013.6
10 10.09 СВ 2 н/о н/о +26.3 +21.9 77 +34 +34 очень
душно
1014.6 1013.9
11 10.09 С 1 н/о н/о +26.9 +21.2 71 +34 +34 очень
душно
1014.9 1014.2
12 10.09 ЮВ 2 20 км 4/0
[Ci fib]
+25.9 +20.9 74 +32 +32 очень
душно
1015.3 1014.6 +31.1
13 10.09 СВ 1 н/о н/о +26.0 +22.5 81 +34 +34 очень
душно
1015.2 1014.5
15 10.09 В 2 н/о н/о +26.3 +22.4 79 +34 +34 очень
душно
1014.8 1014.1
16 10.09 В 1 н/о н/о +25.3 +22.2 83 +33 +33 очень
душно
1014.2 1013.5
17 10.09 В 1 н/о н/о +25.5 +22.8 85 +34 +34 очень
душно
1013.6 1012.9
18 10.09 В 2 20 км 9/8
[Sc Ac trans]
+25.4 +22.5 84 +33 +33 очень
душно
1013.1 1012.4
19 10.09 Ю 1 н/о н/о +25.6 +22.5 83 +34 +34 очень
душно
1012.8 1012.1
20 10.09 ЮЗ 2 н/о н/о +25.4 +23.1 87 +34 +34 очень
душно
1013.0 1012.3
21 10.09 Ю 2 20 км в посл. час ливневой дождь 9/9
[Cu med, cong]
+25.0 +23.1 89 +33 +33 очень
душно
1012.9 1012.2
22 10.09 Ю 2 н/о н/о +25.3 +23.0 87 +34 +34 очень
душно
1013.1 1012.4
23 10.09 Ю 2 н/о н/о +27.1 +24.4 85 +38 +38 очень
душно
1012.7 1012.1
00 11.09 Ю 3 10 км {ливн. осадки} 9/8
[Cu Sc Ac trans]
+27.9 +23.7 78 +38 +39 очень
душно
1012.4 1011.8 +24.7 0.0
01 11.09 Ю 4 н/о н/о +28.5 +24.7 80 +41 +41 опасность
перегрева
1012.0 1011.4
02 11.09 ЮЗ 5 н/о н/о +28.6 +24.6 79 +41 +41 опасность
перегрева
1011.7 1011.1
03 11.09 ЮЗ 5 15 км в посл. час ливневой дождь 10/9
[Cu med, cong Ac As]
+28.3 +25.1 83 +41 +41 опасность
перегрева
1011.3 1010.7
04 11.09 З 6 н/о н/о +27.3 +25.5 90 +40 +40 очень
душно
1010.8 1010.2
05 11.09 ЮЗ 3 н/о н/о +26.8 +25.0 90 +39 +39 очень
душно
1010.4 1009.8
06 11.09 ЮЗ 3 15 км {гроза, ливн. осадки} 9/3
[Cu med, cong Ac As Ci sp]
+27.9 +24.3 81 +39 +41 очень
душно
1010.4 1009.8 4
07 11.09 З 4 н/о н/о +27.4 +22.4 74 +36 +36 очень
душно
1010.7 1010.1
08 11.09 З 5 н/о н/о +26.4 +22.3 78 +34 +34 очень
душно
1011.1 1010.4
09 11.09 СЗ 5 20 км слаб. ливневой дождь 9/9
[Cu med, cong Ac As]
+24.3 +20.4 79 +30 +30 очень
душно
1011.7 1011.0
10 11.09 С 3 н/о н/о +24.4 +20.1 77 +30 +30 очень
душно
1012.8 1012.1
11 11.09 С 2 н/о н/о +24.3 +20.2 78 +30 +30 очень
душно
1013.8 1013.1
12 11.09 СЗ 5 20 км в посл. час ливневой дождь 9/8
[Cu med, cong Ac As]
+24.0 +19.1 74 +29 +29 душно 1014.4 1013.7 +29.7 4
13 11.09 СЗ 3 н/о н/о +23.9 +18.3 71 +28 +28 душно 1014.3 1013.6
14 11.09 С 4 н/о н/о +23.2 +19.0 77 +29 +29 душно 1014.4 1013.7
15 11.09 С 4 н/о н/о +23.5 +17.9 71 +28 +28 душно 1014.2 1013.5
16 11.09 С 4 н/о н/о +23.2 +16.5 66 +28 +28 душно 1014.3 1013.6
17 11.09 С 4 н/о н/о +23.0 +15.6 63 +27 +27 душно 1014.2 1013.5
18 11.09 С 3 20 км 6/4
[Cu med, cong Ac trans Ci sp]
+22.8 +16.4 67 +27 +27 душно 1014.3 1013.6
19 11.09 С 3 н/о н/о +23.0 +15.3 62 +27 +27 душно 1014.6 1013.9
20 11.09 СЗ 3 н/о н/о +22.5 +14.6 61 +26 +26 жарко 1015.2 1014.5
21 11.09 СЗ 2 30 км 3/3
[Cu hum Ac As]
+22.5 +13.6 57 +26 +26 жарко 1015.8 1015.1
23 11.09 С 3 н/о н/о +23.9 +15.2 58 +27 +27 жарко 1016.2 1015.5
00 12.09 СЗ 3 40 км 8/8
[Cu med, cong Ac trans Ci fib]
+24.7 +14.5 53 +27 +29 жарко 1016.2 1015.5 +21.9
01 12.09 СЗ 4 н/о н/о +25.5 +14.9 52 +28 +28 жарко 1016.2 1015.5
02 12.09 СЗ 3 н/о н/о +26.3 +14.1 47 +29 +29 жарко 1016.0 1015.3
03 12.09 З 3 40 км 9/6
[Cu med, cong Ac trans Ci sp]
+25.4 +15.1 53 +28 +31 жарко 1015.9 1015.2
04 12.09 СЗ 4 н/о н/о +25.0 +15.1 54 +28 +28 жарко 1015.6 1014.9
05 12.09 С 4 н/о н/о +23.4 +15.7 62 +28 +28 душно 1015.7 1015.0
06 12.09 С 4 40 км 9/8
[Cu med, cong Ac trans Ci sp]
+23.1 +14.7 59 +27 +28 душно 1015.9 1015.2
07 12.09 С 4 н/о н/о +22.8 +13.3 55 +26 +26 жарко 1016.1 1015.4
08 12.09 С 3 н/о н/о +23.0 +12.9 53 +26 +26 жарко 1016.1 1015.4
09 12.09 СВ 3 40 км 9/8
[Cu Sc Ci sp]
+22.4 +13.5 57 +25 +25 комфорт 1016.5 1015.8
10 12.09 СВ 3 н/о н/о +22.2 +13.8 59 +25 +25 комфорт 1016.9 1016.2
11 12.09 СВ 3 н/о н/о +21.5 +13.9 62 +24 +24 комфорт 1017.1 1016.4
12 12.09 ЮВ 2 30 км 9/1
[Cu Sc Ci sp]
+20.5 +15.1 71 +24 +24 комфорт 1017.3 1016.6 +27.4
13 12.09 Ю 1 н/о н/о +19.5 +14.8 74 +23 +23 комфорт 1017.2 1016.5
15 12.09 ЮВ 1 н/о н/о +18.6 +14.9 79 +20 +20 1016.7 1016.0
16 12.09 В 2 н/о н/о +18.5 +15.2 81 +20 +20 1016.2 1015.5
18 12.09 В 2 25 км 9/0
[Ci sp]
+17.2 +15.0 87 +18 +18 1016.0 1015.3
19 12.09 В 2 н/о н/о +16.9 +12.9 77 +17 +17 1015.8 1015.1
20 12.09 В 2 н/о н/о +16.8 +12.8 77 +17 +17 1015.7 1015.0
21 12.09 В 3 25 км 9/3
[Cu Sc Ac trans Ci sp]
+16.8 +12.6 76 +17 +17 1015.8 1015.1
22 12.09 В 2 н/о н/о +18.4 +13.1 71 +20 +20 1016.1 1015.4
23 12.09 СВ 2 н/о н/о +22.1 +14.7 63 +25 +25 комфорт 1016.0 1015.3
00 13.09 В 2 40 км 9/1
[Cu hum Ac trans Ci sp]
+23.4 +13.6 54 +27 +31 душно 1016.4 1015.7 +16.2
01 13.09 В 3 н/о н/о +24.0 +13.6 52 +26 +26 жарко 1016.0 1015.3
02 13.09 В 2 н/о н/о +24.9 +13.8 50 +27 +27 жарко 1015.2 1014.5
03 13.09 СВ 2 40 км 8/1
[Cu hum Ac trans Ci sp]
+25.9 +14.4 49 +28 +37 жарко 1014.9 1014.2
04 13.09 С 3 н/о н/о +26.0 +14.5 49 +28 +28 жарко 1014.6 1013.9
05 13.09 СВ 3 н/о н/о +26.5 +14.3 47 +29 +29 жарко 1014.1 1013.4
06 13.09 С 2 40 км 5/3
[Sc diur, vesp Ac trans Ci sp]
+26.7 +17.8 58 +31 +35 душно 1013.8 1013.1
08 13.09 ЮВ 5 н/о н/о +25.6 +16.7 58 +29 +29 душно 1013.4 1012.7
09 13.09 ЮВ 5 40 км 1/1
[Cu med, cong Ac trans]
+23.9 +16.4 63 +27 +27 жарко 1013.3 1012.6
10 13.09 ЮВ 4 н/о н/о +22.8 +16.1 66 +27 +27 душно 1014.3 1013.6
11 13.09 ЮВ 5 н/о н/о +22.1 +15.9 68 +26 +26 душно 1015.0 1014.3
12 13.09 ЮВ 7 20 км 4/1
[Sc Ac trans]
+21.3 +15.2 68 +24 +24 комфорт 1015.0 1014.3 +26.9
13 13.09 ЮВ 7 н/о н/о +21.0 +14.9 68 +24 +24 комфорт 1015.0 1014.3
14 13.09 ЮВ 5 н/о н/о +20.7 +14.1 66 +23 +23 комфорт 1015.0 1014.3
15 13.09 ЮВ 6 н/о н/о +20.5 +13.7 65 +23 +23 комфорт 1014.6 1013.9
16 13.09 ЮВ 6 н/о н/о +20.3 +13.3 64 +22 +22 комфорт 1014.5 1013.8
17 13.09 ЮВ 5 н/о н/о +19.8 +13.3 66 +21 +21 комфорт 1014.4 1013.7
18 13.09 ЮВ 6 20 км 1/0
[Ac trans]
+19.7 +13.4 67 +21 +21 комфорт 1014.1 1013.4
19 13.09 ЮВ 5 н/о н/о +19.4 +12.9 66 +21 +21 комфорт 1014.0 1013.3
21 13.09 Ю 4 30 км 3/0
[Ac trans Ci fib]
+19.1 +13.3 69 +20 +20 1014.7 1014.0
00 14.09 ЮВ 5 40 км 5/1
[Cu hum Ac trans Ci sp]
+24.8 +14.3 52 +27 +31 жарко 1014.4 1013.7 +18.7
01 14.09 ЮВ 5 н/о н/о +26.3 +14.1 47 +29 +29 жарко 1014.1 1013.4
02 14.09 ЮВ 5 н/о н/о +28.6 +14.5 42 +31 +31 жарко 1013.2 1012.6
03 14.09 ЮВ 3 30 км 3/1
[Cu hum Ci sp]
+28.8 +13.9 40 +31 +42 жарко 1012.6 1012.0
04 14.09 В 2 н/о н/о +29.7 +15.1 41 +32 +32 душно 1011.7 1011.1
05 14.09 В 1 н/о н/о +29.1 +15.6 44 +32 +32 душно 1011.0 1010.4
06 14.09 С 3 30 км 8/1
[Cu hum Ci sp]
+27.5 +19.1 60 +33 +37 очень
душно
1010.7 1010.1
07 14.09 С 4 н/о н/о +26.7 +18.8 62 +32 +32 очень
душно
1010.7 1010.1
08 14.09 С 3 н/о н/о +26.9 +18.2 59 +32 +32 очень
душно
1010.8 1010.2
09 14.09 С 3 30 км 8/1
[Cu hum Ac trans Ci sp]
+25.9 +19.1 66 +31 +31 очень
душно
1011.5 1010.8
10 14.09 СВ 3 н/о н/о +25.5 +18.4 65 +30 +30 душно 1011.8 1011.1
11 14.09 ЮВ 3 н/о н/о +25.2 +18.9 68 +30 +30 душно 1011.9 1011.2
12 14.09 Ю 1 20 км 1/0
[Ac trans Ci sp]
+24.0 +18.0 69 +28 +28 душно 1011.8 1011.1 +30.3
13 14.09 ЮВ 3 н/о н/о +23.4 +18.1 72 +29 +29 душно 1011.4 1010.7
14 14.09 ЮВ 4 н/о н/о +23.2 +17.9 72 +29 +29 душно 1011.1 1010.4
15 14.09 ЮВ 3 н/о н/о +23.0 +18.1 74 +29 +29 очень
душно
1011.3 1010.6
16 14.09 ЮВ 3 н/о н/о +23.2 +18.3 74 +29 +29 душно 1011.5 1010.8
17 14.09 ЮВ 4 н/о н/о +23.3 +18.0 72 +29 +29 душно 1011.0 1010.3
18 14.09 ЮВ 4 20 км 8/1
[Sc Ac trans]
+23.0 +17.9 73 +28 +28 душно 1010.7 1010.0
19 14.09 Ю 2 н/о н/о +22.1 +18.1 78 +27 +27 душно 1010.6 1009.9
20 14.09 Ю 2 н/о н/о +21.8 +18.0 79 +26 +26 душно 1011.0 1010.3
21 14.09 Ю 2 20 км 3/3
[Sc Ac trans]
+21.6 +17.8 79 +26 +26 душно 1010.9 1010.2
22 14.09 Ю 2 н/о н/о +23.4 +18.3 73 +29 +29 душно 1010.6 1009.9
23 14.09 Ю 3 н/о н/о +25.1 +18.1 65 +29 +29 душно 1010.9 1010.2
00 15.09 Ю 2 20 км 3/1
[Cu hum Ac trans Ci sp]
+27.0 +18.3 59 +32 +38 очень
душно
1010.8 1010.2 +21.5
01 15.09 Ю 2 н/о н/о +28.7 +19.1 56 +34 +34 очень
душно
1010.4 1009.8
02 15.09 ЮВ 2 н/о н/о +29.0 +18.5 53 +34 +34 очень
душно
1009.9 1009.3
03 15.09 Ю 2 40 км 1/1
[Cu med, cong Ac trans Ci fib]
+29.9 +20.7 58 +37 +51 опасность
солнечного
удара
1009.3 1008.7
04 15.09 С 4 н/о н/о +28.4 +21.4 66 +36 +36 очень
душно
1008.8 1008.2
05 15.09 С 3 н/о н/о +28.0 +21.3 67 +35 +35 очень
душно
1008.4 1007.8
06 15.09 С 3 40 км 1/1
[Cu med, cong]
+28.4 +19.4 58 +34 +39 очень
душно
1007.9 1007.3
07 15.09 С 4 н/о н/о +27.7 +21.0 67 +35 +35 очень
душно
1007.9 1007.3
08 15.09 С 3 н/о н/о +26.9 +21.0 70 +34 +34 очень
душно
1007.9 1007.3
09 15.09 СВ 3 30 км 3/3
[Sc Ac trans Ci fib]
+26.0 +21.0 74 +33 +33 очень
душно
1007.9 1007.3
10 15.09 СВ 2 н/о н/о +25.9 +20.2 71 +32 +32 очень
душно
1007.9 1007.3
11 15.09 СВ 2 н/о н/о +25.2 +21.5 80 +32 +32 очень
душно
1008.1 1007.4
12 15.09 С 2 25 км ясно +25.0 +21.5 81 +32 +32 очень
душно
1008.0 1007.3 +30.3
13 15.09 С 2 н/о н/о +25.2 +22.3 84 +33 +33 очень
душно
1007.7 1007.0
14 15.09 Ю 1 н/о н/о +23.8 +22.4 92 +31 +31 очень
душно
1007.4 1006.7
15 15.09 СВ 1 н/о н/о +24.4 +21.9 86 +31 +31 очень
душно
1007.0 1006.3
16 15.09 В 2 н/о н/о +23.9 +19.8 78 +29 +29 душно 1006.6 1005.9
17 15.09 ЮВ 3 н/о н/о +24.5 +18.9 71 +29 +29 душно 1006.3 1005.6
18 15.09 ЮВ 2 20 км 9/9
[Sc]
+23.7 +19.2 76 +29 +29 душно 1006.1 1005.4
19 15.09 ЮЗ 2 н/о н/о +22.3 +19.7 85 +28 +28 душно 1005.9 1005.2
21 15.09 Ю 2 20 км 8/5
[Sc Ac trans Ci sp]
+22.3 +20.0 87 +28 +28 душно 1005.8 1005.1
22 15.09 Ю 2 н/о н/о +22.9 +20.3 85 +30 +30 очень
душно
1005.5 1004.8
23 15.09 Ю 2 н/о н/о +23.7 +20.6 83 +30 +30 очень
душно
1005.6 1004.9

 

Местоположение метеостанции Ниигата (Япония): широта 37.92 долгота 139.05 высота над уровнем моря 6 м.

В архиве по умолчанию представлена погода в Ниигате за последнюю неделю. Архивные данные за месяц целиком и за предыдущие месяцы, начиная с января 2011 года, Вы можете получить, выбрав интересующий диапазон дат из раскрывающегося списка и нажав кнопку "Ввод!".


*Определитесь, кто Вы:
робот инопланетянин человек

Внимание! Время в таблицах - всемирное. Для получения местного времени необходимо прибавить поправку, которая равна 9 ч.

Смотрите также архив погоды в соседних городах и на ближайших метеорологических станциях:

Погода в Айкаве (Япония) (73 км)
Погода в Вакамацу (Япония) (90 км)
Погода в Такаде (Япония) (115 км)
Погода в Ямаге (Япония) (120 км)
Погода в Фукусиме (Япония) (125 км)
Погода в Сакате (Япония) (131 км)
Погода в Сиракаве (Япония) (135 км)
Погода в Никко (Япония) (138 км)
Погода в Синдзё (Япония) (144 км)
Погода в Нагано (Япония) (158 км)

Пояснения к столбцам:

Ветер - указаны скорость ветра в м/с - средняя за 10 мин, порывы в срок и между сроками (в фигурных скобках) и направление, откуда дует ветер: С - северный, СВ - северо-восточный, В - восточный, ЮВ - юго-восточный, Ю - южный, ЮЗ - юго-западный, З - западный, СЗ - северо-западный.
Видимость - горизонтальная дальность видимости в метрах или километрах. При видимости от 1 до 10 км при отсутствии осадков обычно наблюдается дымка, при ухудшении видимости до 1 км и менее - туман. В сухую погоду видимость может ухудшаться дымом, пылью или мглою.
Явления - указаны атмосферные явления, наблюдавшиеся в срок или в последний час перед сроком; фигурными скобками обозначены явления, наблюдавшиеся между сроками (за 1-3 часа до срока); квадратными скобками обозначены град или гололедные отложения с указанием их диаметра в мм.
Облачность - указаны через наклонную черту общая и нижняя облачность в баллах и высота нижней границы облаков в метрах; квадратными скобками обозначены формы облаков: Ci - перистые, Cs - перисто-слоистые, Cc - перисто-кучевые, Ac - высококучевые, As - высокослоистые, Sc - слоисто-кучевые, Ns - слоисто-дождевые, Cu - кучевые, Cb - кучево-дождевые. Подробнее классификацию облаков см. в Атласе облаков (PDF).
T - Температура воздуха - температура, измеренная на высоте 2 м над землей.
Td - Температура точки росы - температура, при понижении до которой содержащийся в воздухе водяной пар достигнет насыщения.
f - Относительная влажность воздуха - влажноcть воздуха, измеренная на высоте 2 м над землей.
Te - Эффективная температура - температура, которую ощущает одетый по сезону человек в тени. Характеристика душности погоды. При расчете учитывается влияние влажности воздуха и скорости ветра на теплоощущения человека.
Tes - Эффективная температура на солнце - температура, которую ощущает человек, с поправкой на солнечный нагрев. Характеристика знойности погоды. Зависит от высоты солнца над горизонтом, облачности и скорости ветра. Ночью, в пасмурную погоду, а также при ветре 12 м/с и более поправка равна нулю.
P - Атмосферное давление - приведенное к уровню моря атмосферное давление.
Po - Атмосферное давление - измеренное на уровне метеостанции атмосферное давление.
Tmin - Минимальная температура - минимум температуры воздуха на высоте 2 м над землей.
Tmax - Максимальная температура - максимум температуры воздуха на высоте 2 м над землей.
R - Количество осадков - Количество выпавших осадков за период времени, мм. При наведении курсора мыши на число - период времени, за который выпало указанное количество осадков.
R24 - Количество осадков - Количество выпавших осадков за 24 часа, мм.
S - Снежный покров - Высота снежного покрова, см. При наведении курсора мыши на число - состояние снежного покрова и степень покрытия местности в баллах.